TIME,DELAY(SENSOR),PRES,OXYGEN,RAWTEMP,T(OPTODE),TCPHASE,FLUOR,BETA(BETA700),BETA(BETA412),BETA(BETA440),CDOM,C(CSC),ED(ED412.40),ED(ED444.00),ED(ED489.70),ED(ED554.30),LU(LU411.80),LU(LU443.40),LU(LU489.60),LU(LU554.10),COMP,TILTX,TILTY,CHECK
1347940058,5803,863.8800048828125000,45.4062309265136700,661.0429077148438000,4.5936341285705570,54.2062988281250000,52,99,84,80,81,15271,2147759204,2147422674,2148008530,2147875309,2147639771,2147065124,2148257792,2147198226,2315,5,13,44595
1347943654,5806,930.7100219726562000,46.9588508605957000,670.1732788085938000,4.2924709320068360,54.0972099304199200,53,100,88,79,81,15272,2147757577,2147421979,2148011620,2147877101,2147642953,2147059693,2148267510,2147198409,1307,4,13,46340
1347947254,5807,947.0499877929688000,48.1840782165527340,673.5283813476562000,4.1815719604492190,53.9651298522949200,52,99,88,78,81,15269,2147758665,2147423003,2148009179,2147876242,2147643858,2147061330,2148264091,2147196754,3384,5,13,56361
1347950854,5810,983.4099731445312000,48.5434303283691400,676.3643798828125000,4.0877270698547360,53.9536781311035160,53,101,88,81,82,15258,2147759990,2147423387,2148012800,2147876086,2147644068,2147062784,2148258761,2147197083,371,5,13,30478
1347954454,5811,980.3800048828125000,48.6392402648925800,677.2144165039062000,4.0595841407775880,53.9462089538574200,53,100,86,79,82,15263,2147762779,2147424027,2148010331,2147876388,2147643227,2147058651,2148261458,2147201773,239,5,13,55580
1347958054,5809,990.0000000000000000,48.4312095642089840,676.5712280273438000,4.0808792114257810,53.9740409851074200,53,102,87,79,81,15259,2147755657,2147423588,2148008402,2147874294,2147645010,2147058358,2148262866,2147195126,28,5,13,2301
1347961654,5806,993.9699707031250000,48.1588706970214840,676.0764160156250000,4.0972599983215330,54.0028686523437500,52,98,83,79,82,15261,2147758464,2147419437,2148010230,2147875803,2147641865,2147060141,2148259803,2147192448,3452,4,13,59487
1347965254,5809,983.2000122070312000,48.3255691528320300,677.3649291992188000,4.0545997619628910,53.9942512512207000,53,102,90,80,82,15260,2147759634,2147421120,2148008566,2147874605,2147644617,2147059693,2148262820,2147199506,797,5,13,52214
1347968854,5809,988.2500000000000000,48.8139190673828100,678.7631835937500000,4.0082778930664060,53.9415588378906250,54,98,93,79,82,15260,2147759762,2147422528,2148010560,2147876726,2147642212,2147059117,2148259218,2147199186,492,5,13,5267
1347972454,5808,986.5700073242188000,48.6342811584472660,677.8956298828125000,4.0370221138000490,53.9617385864257800,52,98,89,79,82,15257,2147758710,2147422336,2148009234,2147874724,2147642560,2147057654,2148264374,2147198043,4,5,13,20413
1347976054,5808,993.4600219726562000,48.2347717285156250,676.7423706054688000,4.0752120018005370,54.0016899108886700,52,97,88,79,81,15257,2147760393,2147423890,2148006125,2147875666,2147643117,2147062537,2148263588,2147196717,567,5,13,32876
1347979654,5811,998.4199829101562000,47.8761100769043000,676.6234741210938000,4.0791468620300290,54.0478591918945300,52,99,88,79,81,15256,2147760969,2147420827,2148013101,2147873142,2147642377,2147060123,2148261906,2147200576,490,5,13,50940
1347983254,5811,1003.3499755859375000,47.4188690185546900,676.0711059570312000,4.0974369049072270,54.1078910827636700,51,101,87,78,81,15258,2147759314,2147421869,2148007707,2147875501,2147641161,2147063588,2148260864,2147197586,218,5,13,47659
1347986854,5811,1004.8800048828125000,47.5213699340820300,676.2387084960938000,4.0918869972229000,54.0915985107421900,53,99,87,80,79,15256,2147759003,2147423652,2148010889,2147874971,2147640676,2147063753,2148262299,2147198025,255,5,13,60662
1347990454,5808,993.4000244140625000,48.0555992126464840,677.6812133789062000,4.0441231727600100,54.0348091125488300,53,101,87,78,81,15253,2147759570,2147421275,2148011584,2147875465,2147643501,2147063488,2148260324,2147197467,3001,5,13,22522
1347994054,5810,999.2299804687500000,48.6537704467773440,677.9730834960938000,4.0344538688659670,53.9571189880371100,52,99,88,77,83,15252,2147763136,2147420288,2148009892,2147875858,2147644041,2147058185,2148263305,2147193810,3537,5,13,62649
1347997654,5806,995.5599975585938000,47.9154891967773440,677.3043823242188000,4.0566010475158690,54.0516395568847660,53,101,86,79,82,15255,2147762038,2147422070,2148008667,2147877860,2147646134,2147061705,2148262875,2147199780,3346,5,13,63163
1348001254,5807,1000.4099731445312000,47.9555702209472660,677.3978881835938000,4.0535049438476560,54.0492591857910160,52,99,89,79,82,15249,2147758189,2147425197,2148008448,2147875072,2147642733,2147058020,2148264201,2147194349,100,5,13,19254
1348004854,5809,998.8400268554688000,47.7892684936523440,677.2197265625000000,4.0594081878662110,54.0651588439941400,52,99,90,80,81,15252,2147760786,2147424749,2148009408,2147874953,2147641353,2147062281,2148263158,2147197988,3556,5,13,25907
1348008454,5807,991.3200073242188000,48.2473411560058600,678.1063232421875000,4.0300431251525880,54.0152282714843750,52,101,86,79,80,15252,2147760713,2147422171,2148009481,2147874651,2147640694,2147057819,2148265060,2147192073,605,5,13,59625
1348012054,5806,999.5599975585938000,48.2882499694824200,678.4583740234375000,4.0183749198913570,54.0112190246582000,53,98,87,79,82,15247,2147759497,2147422637,2148008585,2147876598,2147640530,2147061604,2148263762,2147198409,3557,4,13,26026
1348015654,5807,999.9799804687500000,47.6741600036621100,677.0999755859375000,4.0633702278137210,54.0795288085937500,53,99,90,79,82,15250,2147762596,2147424329,2148008283,2147874057,2147643556,2147058669,2148261668,2147197394,359,5,13,47984
1348019254,5809,1000.1400146484375000,48.2382011413574200,678.5637817382812000,4.0148830413818360,54.0215682983398440,52,101,87,79,82,15248,2147759771,2147421476,2148008329,2147874157,2147643995,2147063552,2148264960,2147194166,856,5,13,45591
1348022854,5807,1006.4099731445312000,48.3407211303710940,677.6992187500000000,4.0435280799865720,53.9948692321777340,53,100,86,79,81,15249,2147758994,2147423222,2148006674,2147875456,2147642166,2147063899,2148263177,2147194377,102,5,13,58092
1348026454,5808,1010.9799804687500000,47.3129806518554700,675.8790893554688000,4.1037921905517580,54.1159706115722660,51,98,86,80,82,15246,2147760384,2147422656,2148010459,2147873746,2147641682,2147061851,2148263990,2147194797,97,5,13,63762
1348030054,5807,1003.1699829101562000,47.9319381713867200,676.8302001953125000,4.0723061561584470,54.0444107055664060,53,99,88,78,81,15245,2147760630,2147420608,2148008685,2147876132,2147641453,2147061897,2148260352,2147200301,3288,5,13,12405
1348033654,5807,1013.0300292968750000,48.1956100463867200,677.2733154296875000,4.0576319694519040,54.0102806091308600,52,99,87,78,82,15243,2147761865,2147419428,2148009993,2147879049,2147643675,2147059145,2148265920,2147198619,3473,5,13,30010
1348037254,5807,1007.4000244140625000,47.3977699279785160,676.5145263671875000,4.0827598571777340,54.1111984252929700,53,103,86,80,81,15246,2147758500,2147423232,2148010532,2147875437,2147642148,2147055542,2148265892,2147199030,3281,5,13,17905
1348040854,5808,993.4099731445312000,48.2798500061035160,678.6115722656250000,4.0132999420166020,54.0149917602539060,52,100,88,80,82,15243,2147756909,2147422290,2148006637,2147874066,2147645056,2147056640,2148257645,2147195346,1040,5,13,37596
1348044454,5807,1007.5700073242188000,48.9868812561035160,678.7465209960938000,4.0088329315185550,53.9222602844238300,52,101,92,79,82,15244,2147760448,2147421074,2148009819,2147874523,2147642203,2147060790,2148263670,2147202166,3114,5,13,25747
1348048054,5809,995.1400146484375000,48.3037490844726560,678.7075195312500000,4.0101242065429690,54.0124015808105500,53,100,91,78,81,15242,2147755684,2147423213,2148009517,2147875986,2147644763,2147065243,2148265371,2147196699,463,5,13,18688
1348051654,5809,995.8300170898438000,48.3609199523925800,679.2736206054688000,3.9913671016693115,54.0156898498535160,53,98,87,79,82,15246,2147761810,2147419840,2148008073,2147875410,2147647232,2147062884,2148264274,2147196434,227,5,13,61649
1348055254,5811,998.4000244140625000,48.7248992919921900,679.6516723632812000,3.9788339138031006,53.9706306457519500,53,99,85,78,82,15247,2147759250,2147424091,2148008310,2147874313,2147644790,2147061421,2148262756,2147199067,3526,5,13,43195
1348058854,5809,997.6799926757812000,48.6041793823242200,679.8350219726562000,3.9727571010589600,53.9864196777343750,53,99,90,79,82,15235,2147759250,2147421888,2148012754,2147874578,2147644242,2147059803,2148261540,2147196361,3194,5,13,9881
1348062454,5810,1009.3800048828125000,49.3758888244628900,679.5814819335938000,3.9811589717864990,53.8811988830566400,52,99,86,79,81,15238,2147759168,2147424374,2148006710,2147874816,2147645851,2147057664,2148259346,2147198500,228,5,13,23011
1348066054,5808,1011.9799804687500000,49.0757713317871100,679.0687866210938000,3.9981520175933840,53.9096794128418000,52,100,88,79,81,15242,2147758628,2147421056,2148010898,2147875099,2147643776,2147061814,2148262564,2147198976,269,5,13,23400
1348069654,5808,1016.8900146484375000,48.2267189025878900,677.3782958984375000,4.0541548728942870,54.0087013244628900,53,99,86,80,82,15236,2147760768,2147422326,2148010185,2147873673,2147644480,2147058861,2148261248,2147198912,275,5,13,11794
1348073254,5808,1012.0100097656250000,47.7588081359863300,676.9921875000000000,4.0669422149658200,54.0722694396972660,53,99,84,80,81,15240,2147757878,2147421229,2148009152,2147879268,2147642633,2147062957,2148261101,2147198939,593,5,13,64376
1348076854,5807,991.7399902343750000,47.7299690246582000,677.7056274414062000,4.0433158874511720,54.0800209045410160,53,100,87,79,82,15238,2147760914,2147420379,2148008201,2147875867,2147642907,2147060800,2148263396,2147196461,2669,5,13,60798
1348080454,5809,1007.5300292968750000,47.9420394897460940,678.0476074218750000,4.0319862365722660,54.0573616027832000,53,97,86,78,81,15237,2147760173,2147422464,2148011922,2147876306,2147642560,2147069458,2148260699,2147198235,236,4,13,10404
1348084054,5808,1003.5900268554688000,47.8822097778320300,678.6265258789062000,4.0128078460693360,54.0728492736816400,52,100,88,79,80,15234,2147758656,2147419629,2148010688,2147873142,2147644525,2147061741,2148264438,2147199762,375,4,13,12763
1348084255,5805,1004.2500000000000000,47.9168586730957000,678.6655883789062000,4.0115089416503910,54.0670318603515600,51,98,88,79,83,15256,2147759917,2147424064,2148009874,2147874724,2147642450,2147057225,2148263378,2147202102,188,5,13,16619
